Flag for Ireland Weather past 2 weeks in Galway, Ireland

Now
61 °F

Partly sunny.


Feels Like: 61 °F
Forecast: 50 / 65 °F
Wind: 6 mph from West

Location: Shannon Airport

Current Time: Sep 1, 2014 at 12:36:00 PM

Latest Report: Sep 1, 2014 at 12:00 PM


Visibility: N/A

Pressure: 30.21 "Hg

Humidity: 55%

Dew point: 45 °F

Location of GalwayLocation

Historic Weather in Galway — Graph

°F

Galway temperature yesterday

Maximum temperature yesterday: 66 °F (at 12:30 PM)
Minimum temperature yesterday: 50 °F (at 5:30 AM)
Average temperature yesterday: 59 °F

Past Weeks' High & Low Weather Summary

 TemperatureHumidityPressure
High72 °F (Aug 25, 2:30 PM)100% (Aug 23, 4:00 AM)30.21 "Hg (Aug 23, 4:00 AM)
Low43 °F (Aug 23, 3:30 AM)40% (Aug 23, 4:00 PM)29.36 "Hg (Aug 25, 5:00 PM)
Average58 °F76%29.89 "Hg
* Reported Aug 17 11:00 AM — Sep 1 11:30 AM, Galway, Weather by CustomWeather, © 2014

Note: Actual official high and low records may vary slightly from our data, if they occured in-between our weather recording intervals... More about our weather records

Advertising

Galway weather history for previous 24 hours

 ConditionsComfort  
Time TempWeatherWind HumidityBarometerVisibility
11:30 AM
Sep 1
61 °FPartly sunny.5 mph55%30.21 "HgN/A
11:00 AM59 °FOvercast.7 mph63%30.21 "HgN/A
10:30 AM59 °FOvercast.5 mph59%30.21 "HgN/A
10:00 AM59 °FMore clouds than sun.6 mph63%30.18 "HgN/A
9:30 AM59 °FMore clouds than sun.7 mph68%30.18 "HgN/A
9:00 AM57 °FMore clouds than sun.3 mph72%30.18 "HgN/A
8:30 AM57 °FMore clouds than sun.6 mph77%30.18 "HgN/A
8:00 AM55 °FMore clouds than sun.5 mph82%30.15 "HgN/A
7:30 AM55 °FMostly cloudy.3 mph82%30.15 "HgN/A
7:00 AM55 °FMostly cloudy.3 mph77%30.15 "HgN/A
6:30 AM55 °FOvercast.5 mph77%30.12 "HgN/A
6:00 AM57 °FOvercast.5 mph72%30.12 "HgN/A
5:30 AM57 °FOvercast.7 mph72%30.12 "HgN/A
5:00 AM57 °FPassing clouds.7 mph88%30.12 "HgN/A
4:30 AM57 °FPassing clouds.6 mph94%30.12 "HgN/A
4:00 AM57 °FPassing clouds.7 mph94%30.12 "HgN/A
3:30 AM57 °FPassing clouds.6 mph94%30.09 "HgN/A
3:00 AM57 °FPassing clouds.7 mph94%30.09 "HgN/A
2:30 AM59 °FPassing clouds.5 mph88%30.09 "HgN/A
2:00 AM57 °FPassing clouds.5 mph94%30.09 "HgN/A
1:30 AM57 °FPassing clouds.5 mph94%30.09 "HgN/A
1:00 AM57 °FPartly cloudy.5 mph94%30.09 "HgN/A
12:30 AM57 °FPassing clouds.5 mph94%30.09 "HgN/A
12:00 AM59 °FPassing clouds.7 mph88%30.09 "HgN/A
11:30 PM
Aug 31
57 °FPassing clouds.7 mph94%30.09 "HgN/A
11:00 PM57 °FPassing clouds.8 mph94%30.09 "HgN/A
10:30 PM59 °FPassing clouds.9 mph88%30.07 "HgN/A
10:00 PM59 °FPartly cloudy.8 mph94%30.07 "HgN/A
9:30 PM59 °FPartly cloudy.6 mph94%30.07 "HgN/A
9:00 PM59 °FBroken clouds.8 mph94%30.07 "HgN/A
8:30 PM59 °FBroken clouds.8 mph94%30.04 "Hg6 mi
8:00 PM59 °FDrizzle. Broken clouds.8 mph94%30.04 "Hg3 mi
7:30 PM63 °FDrizzle. Partly sunny.13 mph94%30.01 "Hg2 mi
7:00 PM63 °FDrizzle. Broken clouds.13 mph100%30.01 "Hg2 mi
6:30 PM64 °FDrizzle. Broken clouds.12 mph94%30.01 "Hg2 mi
6:00 PM64 °FDrizzle. Partly sunny.12 mph94%29.98 "Hg2 mi
5:30 PM64 °FDrizzle. Broken clouds.13 mph94%30.01 "Hg2 mi
5:00 PM64 °FDrizzle. Mostly cloudy.12 mph94%30.01 "Hg2 mi
4:30 PM66 °FDrizzle. More clouds than sun.12 mph83%30.01 "Hg4 mi
4:00 PM66 °FDrizzle. Mostly cloudy.10 mph83%30.01 "Hg4 mi
3:30 PM66 °FDrizzle. Mostly cloudy.18 mph78%30.01 "Hg4 mi
3:00 PM66 °FDrizzle. Partly sunny.12 mph78%30.01 "Hg4 mi
2:30 PM66 °FPartly sunny.15 mph68%30.01 "HgN/A
2:00 PM66 °FPartly sunny.15 mph68%30.04 "HgN/A
1:30 PM66 °FPartly sunny.15 mph68%30.04 "HgN/A
1:00 PM66 °FScattered clouds.14 mph64%30.04 "HgN/A
12:30 PM66 °FPartly sunny.10 mph64%30.04 "HgN/A
12:00 PM64 °FPartly sunny.10 mph68%30.04 "HgN/A
Weather by CustomWeather, © 2014

See weather overviewHow to use our weather pages